sat.trackr.live / text

‹ back to catalog

ONEWEB-0601

NORAD 54665 · 2022-166Z

PAYLOAD ACTIVE UNKNOWN

§ Identity

Operator
Country
UK
Launch date
2022-12-08
Launch site
AFETR
Launch vehicle
Mass (kg)
RCS (m²)

Purposes: comms

External: N2YO · Heavens-Above · Gunter

§ Orbital elements

Epoch: 2026-05-25T00:31:35.502816Z

Period
108.94 min
Inclination
87.9252°
Eccentricity
0.0002257
Mean motion
13.21827517 rev/d
Perigee alt
1,176.0 km
Apogee alt
1,179.5 km
Semi-major
7,555.9 km
B*
8.6656e-5
RAAN
248.6044°
Arg perigee
98.3415°
Mean anomaly
261.7975°
Rev number
16,864

§ Raw data

ONEWEB-06011 54665U 22166Z   26145.02193869  .00000049  00000+0  86656-4 0  99962 54665  87.9252 248.6044 0002257  98.3415 261.7975 13.21827517168644

JSON: /api/v1/satellites/54665 · /tle

For live sub-satellite position, see the globe view (requires WebGL).

§ Visibility from observer

Set your observer location to see the next 7 days of passes ≥ 10°. The values pass through the URL so the page stays shareable.

No JS? Fill the form by hand. The geolocation button needs JavaScript.